Rbgn^[z[y[W
メイン
   新天体発見情報
     Comet C/2023 H5 (Lemmon)
投稿するにはまず登録を

スレッド表示 | 新しいものから 前のトピック | 次のトピック | 下へ
投稿者 スレッド
佐藤裕久
投稿日時: 2023-6-23 0:46
モデレータ
登録日: 2005-6-12
居住地: 日本
投稿: 2674
オンライン
Comet C/2023 H5 (Lemmon)

4月19日、Mt Lemmon サーベイの1.5-m 反射望遠鏡で得たCCD画像から、小惑星状てセンタが発見
された。
小惑星センターのPCCP webpageに公表後、彗星活動を示していることがわかった。
R. Weryk (西オンタリオ大学,物理および天文学科)によると、2022年12月1日、Haleakalaにある
Pan-STARRS1の1.8-m Ritchey-Chretien 反射望遠鏡で得た発見前の画像(22.1-22.4等)と2023年1月
20日、HaleakalaにあるPan-STARRS2の1.8-m Ritchey-Chretien 反射望遠鏡 (20.9-21.3等)を確認
した。MPCの"isolated tracklet file" にも3月27.25-27.2日8UT (20.5-20.6等)のPan-STARRS1の
観測が含まれていた。Werykは、その夜に得た45-秒4枚W-バンドサーベイ画像が、1".2のシーイン
グで、非常に集光した1".5 (半値全幅:FWHM)の頭部が見えるが尾はなかった。

彗星機能の報告は次のとおり、

OC   Date        Reporter           Coma    Tail    PA          Exposures
F51  2023-03-27  R. Weryk           0".3                          4x45s
T14  2023-06-12  R. Weryk           0".6      2"    140           3x60s

発見位置は次のとおり、

     2023 UT             R.A. (2000) Decl.       Mag.
     Apr. 19.18324    9 56 38.92   -12 53 18.3   20.2
          19.18840    9 56 38.86   -12 53 15.9   20.0
          19.19355    9 56 38.80   -12 53 13.4   20.2
          19.19872    9 56 38.73   -12 53 11.3   20.3

MPCの双曲線軌道要素、位置推算表は次のとおり、

Orbital elements:
    C/2023 H5 (Lemmon)                                                          
Epoch 2023 Feb. 25.0 TT = JDT 2460000.5                                         
T 2025 June 30.11305 TT                                 Rudenko                 
q   4.3122276            (2000.0)            P               Q                  
z  -0.0001326      Peri.   60.08640     -0.42532089     +0.83577119             
 +/-0.0000344      Node   159.47727     -0.07885560     -0.41645558             
e   1.0005719      Incl.   97.89168     +0.90160076     +0.35784253             
From 60 observations 2022 Dec. 1-2023 June 15, mean residual 0".1.              
                                                                                
Ephemeris:
Date    TT    R. A. (2000) Decl.     Delta      r    Elong.  Phase   m1
2023 05 20    09 53 57.2 -09 17 14   7.2425  7.4044    95.3     7.8  20.0
...
2023 06 04    09 55 37.1 -07 51 30   7.3970  7.3178    81.6     7.9  20.0
...
2023 06 12    09 57 12.8 -07 11 58   7.4779  7.2717    74.4     7.7  20.0
...
2023 06 18    09 58 42.3 -06 45 10   7.5362  7.2372    69.2     7.5  20.0
2023 06 19    09 58 58.6 -06 40 57   7.5456  7.2315    68.3     7.5  20.0
2023 06 20    09 59 15.3 -06 36 47   7.5550  7.2257    67.4     7.5  20.0
...
2023 06 26    10 01 03.2 -06 13 15   7.6089  7.1913    62.2     7.2  20.0
...
2023 07 04    10 03 46.2 -05 45 33   7.6742  7.1454    55.4     6.7  20.0
...
2023 07 19    10 09 42.9 -05 04 14   7.7709  7.0595    42.8     5.6  19.9

(MPEC 2023-M44、CBET 5272)

スレッド表示 | 新しいものから 前のトピック | 次のトピック | トップ

投稿するにはまず登録を
 
© 1999 Tsutomu Seki.